Zurück zum Katalog

STARLINK-6158

AktivKommunikationVLEO
NORAD 56375·PAYLOAD·🇺🇸 United States

Gestartet May 4, 2023 von Cape Canaveral Space Force Station

Loading…

Nächste Überflüge (nächste 24 Stunden)

TLE

AktuellSource: CelesTrak SupGP

Epoche: Sep 14, 2026, 21:53 UTC

1 56375C 23061B   26257.91229167  .00003052  00000+0  11052-3 0  2575
2 56375  43.0021 209.0908 0001506 260.0341   2.9689 15.27584974    11

Verfolge STARLINK-6158 in Echtzeit mit AllMySat

Download on the App Store